Welcome to the New NWS' Forecast!
Most changes are behind the scenes, but click here for differences you might notice.
Latest weather observations around

Fairfield / Travis Air Force Base (KSUU)

Using English Units (Switch to International System of Units)
Date/ Time (PDT) Wind (mph) Vis. (mi) Weather Sky Cond. Temp (°F) Rel. Humidity Wind Chill (°F) Heat Index (°F) Pressure Precip. (in)
Air Dwpt 6 hour Altimeter (inHg) Sea level (inHg) 1 hr 3 hr 6 hr
Max Min
Aug 19 14:58 WSW 15 10 Clear CLR 89 48     24%   86 29.84 29.86      
Aug 19 13:58 WSW 18 10 Clear CLR 87 49     27%   84 29.86 29.88      
Aug 19 06:58   10 Clear CLR 55 51     87%     29.91 29.93      
Aug 19 03:58   10 Clear CLR 56 52     86%     29.88 29.9      
Aug 19 00:58   10 Clear CLR 60 52     76%     29.9 29.92      
Aug 18 22:58   10 Clear CLR 64 52     65%     29.9 29.92      
Aug 18 21:58   10 Clear CLR 66 51     58%     29.9 29.92      
Aug 18 20:58 SW 18 10 Clear CLR 69 51     52%     29.89 29.91      
Notice The following observation data may not be complete
Aug 18 01:58   10 Clear CLR          %              
Aug 17 22:58   10 Clear CLR 64 50     60%     29.95 29.97      
Aug 17 20:58   10 Clear CLR 69 49     49%     29.94 29.96      
Aug 17 18:58 SW 16 10 Clear CLR 84        %     29.93 29.95      
Aug 17 13:58 SSW 9 10 Clear CLR 93        %     29.99 30.01      
Aug 17 12:58 WSW 5 10 Clear CLR 87 50     28%   85 30 30.03      
Aug 17 11:58 WSW 7 10 Clear CLR 83 50     32%   81 30.02 30.03      
Aug 17 10:58 WSW 13 10 Clear CLR 77 53     44%   76 30.02 30.04      
Aug 17 09:58 WSW 15 10 Clear CLR 72 53     52%   71 30.03        
Aug 17 08:58 SW 14 10 Clear CLR 67 54     61%     30.02        
Aug 17 07:58 WSW 15 10 Clear CLR 62 54     76%     30.02 30.04      
Aug 17 06:58 SW 16 10 Clear CLR 58 53     85%     30.01 30.03      
Aug 17 05:58 SW 18 10 Clear CLR 57 53     86%     29.99 30.01      
Aug 17 04:58 SW 18 10 Clear CLR 58 53     84%     29.98 30      
Aug 17 03:58 SW 21 10 Clear and Windy CLR 59 53     81%     29.98 30      
Aug 17 02:58   10 Clear CLR 60 54     81%     29.97 29.99 0    
Aug 17 01:58   10 Clear CLR 61 54     79%     29.97 29.99      
Aug 17 00:56 SW 18 10 Clear CLR 62 53     73%     29.98 30      
Aug 16 23:56   10 Clear CLR 64 52     65%     29.97 29.99      
Aug 16 22:56   10 Clear CLR 65 53     65%     29.97 29.99      
Aug 16 21:56 WSW 18 10 Clear CLR 67 53     61%     29.97 29.99      
Aug 16 20:56   10 Clear CLR 69 54     59%     29.95 29.97      
Aug 16 19:56 WSW 16 10 Clear CLR 73 55     54%   72 29.94 29.96      
Aug 16 18:56 SW 21 10 Clear and Windy CLR 78 56     46%   78 29.93 29.95      
Aug 16 17:56 SW 17 10 Clear CLR 83 55     38%   83 29.93 29.95      
Aug 16 16:58 SW 18 10 Clear CLR 87 54     33%   85 29.93 29.95      
Aug 16 15:58 SW 17 10 Clear CLR 90        %     29.94 29.96      
Aug 16 14:58 SW 18 10 Clear CLR 88        %     29.96 29.98      
Aug 16 13:58 WSW 15 10 Clear CLR 85 49     28%   83 29.97 29.99      
Aug 16 12:58 WSW 15 10 Clear CLR 82 52     36%   81 29.99 30.01      
Aug 16 11:58 SW 16 10 Clear CLR 77 55     47%   77 30 30.02      
Aug 16 10:58 SW 17 10 Clear CLR 73 56     55%   73 30 30.02      
Aug 16 09:58 SW 15 10 Clear CLR 69 56     63%     30 30.02      
Aug 16 08:58 SW 17 10 Clear CLR 65 56     72%     29.99 30.01      
Aug 16 07:58 SW 15 10 Clear CLR 61 56     83%     29.98 30      
Aug 16 06:58 SW 11 10 Clear CLR 57 54     89%     29.96 29.98      
Aug 16 05:58 SW 15 10 Clear CLR 57 54     87%     29.94 29.96      
Aug 16 04:58 SW 14 10 Clear CLR 58 54     87%     29.92 29.94      
Aug 16 03:58   10 Clear CLR 59 54     84%     29.9 29.92      
Aug 16 02:58   10 Clear CLR 59 54     82%     29.89 29.91      
Aug 16 01:58   10 Clear CLR 60 54     82%     29.89 29.91      
Aug 16 00:58   10 Clear CLR 61 54     78%     29.88 29.9      
Aug 15 23:58   10 Clear CLR 61 54     77%     29.88 29.9      
Aug 15 22:58   10 Clear CLR 62 54     76%     29.87 29.89      
Aug 15 21:58   10 Clear CLR 63 54     75%     29.87 29.89      
Aug 15 20:58   10 Clear CLR 64 54     69%     29.86 29.88      
Aug 15 19:58 SW 20 10 Clear and Windy CLR 68 54     60%     29.85 29.87      
Aug 15 18:58 WSW 17 10 Clear CLR 73 54     52%   72 29.84 29.86      
Aug 15 17:58   10 Clear CLR 77 53     44%   76 29.83 29.85      
Aug 15 16:58   10 Clear CLR 80 55     42%   80 29.84 29.86      
Aug 15 15:58 WSW 22 10 Clear and Windy CLR 82 55     40%   81 29.86 29.88      
Aug 15 14:58 WSW 21 10 Clear and Windy CLR 83 55     39%   82 29.87 29.89      
Aug 15 13:58 SW 17 10 Clear CLR 80 56     43%   80 29.88 29.9      
Aug 15 12:58 SW 18 10 Clear CLR 77 56     47%   77 29.9 29.92      
Aug 15 11:58 SW 20 10 Clear and Windy CLR 74 55     50%   74 29.91 29.93      
Aug 15 10:58   10 Clear CLR 71 55     58%   70 29.91 29.93      
Aug 15 09:58   10 Clear CLR 68 55     63%     29.92 29.94      
Notice The following observation data may not be complete
May 15 08:58   10 Clear CLR          %              
May 15 02:58   10 Mostly Cloudy SCT013 BKN100 53 48     82%     29.93 29.95      
May 14 13:58 WSW 23 10 Clear and Windy CLR 67 52     58%     29.91 29.93      
May 14 10:58   10 Clear CLR 62 50     65%     29.95 29.97      
May 13 07:38   10 Partly Cloudy SCT016 55 48     77%     29.94 29.96      
May 12 12:58   9 Clear CLR 81 42     25%   80 29.8 29.82      
May 12 11:58 N 13 10 Clear CLR 79 41     26%   78          
May 12 07:58 N 21 10 Clear and Windy CLR 70 40     34%     29.81 29.83      
May 12 03:58 N 18 10 Clear CLR 65 40     40%     29.79 29.81      
May 12 02:58 N 16 10 Clear CLR 65 40     39%     29.79 29.81      
Jun 11 20:58 WSW 8 10 Clear   53 48     81%     29.93 29.95      
Jun 11 17:58 WNW 6 5 Rain OVC060 53 48     81%     29.95   0    
Jun 11 14:58 WSW 16 10 Clear CLR 71 41     34%   69 29.87 29.89      
Jun 10 19:58   10 Clear   63 45     52%     29.86 29.88      
Jun 10 17:58 WSW 21 8 Clear and Windy CLR 70 46     43%     29.85 29.87      
Jun 10 15:58 WSW 22 10 Clear and Windy CLR 73 45     37%   72 29.86 29.88      
Jun 10 13:32 W 16 10 Mostly Clear FEW055 73 45     36%   72 29.89 29.91      
Jun 10 12:03   10 Clear CLR 73 39     29%   72 29.91 29.93      
Jun 09 22:58 SW 11 10 Clear CLR 55 48     77%     29.92 29.94      
Notice The following observation data may not be complete
Jun 09 16:58   10 Clear CLR          %              
Jun 09 15:58 SW 16 10 Clear CLR 72 47     41%   71 29.89 29.91      
Jun 08 11:58 ESE 6 10 Cloudy BKN028 OVC033 65 52     62%     30.02 30.04 0    
Jun 08 11:17 Calm 10 Cloudy OVC028 61 52     72%     30.02 30.04      
Notice The following observation data may not be complete
Jun 08 11:06   9 Light Rain OVC028          %              
Jun 08 10:58 Calm 7 Light Drizzle OVC028 60 51     73%     30.01 30.03 0   0
Jun 07 12:58   10 Mostly Cloudy FEW080 SCT150 BKN180 BKN210 71 52     52%   70 29.84 29.86      
Notice The following observation data may not be complete
Jun 07 05:58   10 Clear CLR          %              
Jun 06 11:58 WSW 16 10 Clear CLR 75 52     44%   75 29.86 29.88      
Jun 06 10:58 SW 17 10 Clear CLR 71 52     50%   70 29.87 29.89      
Jun 06 01:58   10 Clear CLR 58 50     76%     29.82 29.84      
Jun 05 12:58 SSW 6 10 Clear CLR 84 51     32%   82 29.85 29.87